Weather History for Iowa Falls, IA

Change the Weather History Date:

Sunday, September 29, 2013

  Actual Average Record
Temperature  
Mean Temperature 57 °F -  
Max Temperature 73 °F 71 °F 88 °F (1953)
Min Temperature 41 °F 46 °F 25 °F (1949)
Degree Days  
Heating Degree Days 8    
Growing Degree Days 7 (Base 50)    
Moisture  
Dew Point 43 °F    
Average Humidity 63    
Maximum Humidity 92    
Minimum Humidity 31    
Precipitation  
Precipitation 0.00 in - - ()
Sea Level Pressure  
Sea Level Pressure 30.01 in    
Wind  
Wind Speed 6 mph (South)    
Max Wind Speed 17 mph    
Max Gust Speed 23 mph    
Visibility 10 miles    
Events      
Averages and records for this station are not official NWS values.
T = Trace of Precipitation, MM = Missing Value Source: NWS Daily Summary

Daily Weather History Graph

Daily Weather History Graph

Search for Another Location

Airport:

Trip Planner

Search our weather history database for the weather conditions in past years. The results will help you decide how hot, cold, wet, or windy it might be!

Date:

Astronomy

Sep. 29, 2013 Rise Set
Actual Time 7:08 AM CDT 6:57 PM CDT
Civil Twilight 6:40 AM CDT 7:25 PM CDT
Nautical Twilight 6:07 AM CDT 7:58 PM CDT
Astronomical Twilight 5:34 AM CDT 8:31 PM CDT
Moon 1:44 AM CDT (9/29) 3:59 PM CDT (9/29)
Length of Visible Light 12h 45m
Length of Day
11h 49m
Waning Crescent, 27% of the Moon is Illuminated
Sep 29
Waning Crescent
Oct 4
New
Oct 11
First Quarter
Oct 18
Full
Oct 26
Last Quarter

Hourly Weather History & Observations

Time (CDT) Temp. Windchill Dew Point Humidity Pressure Visibility Wind Dir Wind Speed Gust Speed Precip Events Conditions
12:15 AM 47.1 °F - 43.5 °F 87% 30.04 in 10.0 mi SW 3.5 mph - N/A   Clear
12:35 AM 46.4 °F 45.2 °F 43.3 °F 89% 30.04 in 10.0 mi SSW 3.5 mph - N/A   Clear
12:55 AM 45.9 °F - 42.8 °F 89% 30.04 in 10.0 mi Calm Calm - N/A   Clear
1:15 AM 45.5 °F - 42.8 °F 90% 30.05 in 10.0 mi Calm Calm - N/A   Clear
1:35 AM 45.5 °F 43.2 °F 42.1 °F 88% 30.05 in 10.0 mi WSW 4.6 mph - N/A   Clear
1:55 AM 45.7 °F - 42.6 °F 89% 30.05 in 10.0 mi Calm Calm - N/A   Clear
2:15 AM 45.5 °F 44.2 °F 42.3 °F 88% 30.05 in 10.0 mi SW 3.5 mph - N/A   Clear
2:35 AM 45.0 °F 43.5 °F 41.9 °F 89% 30.05 in 10.0 mi SW 3.5 mph - N/A   Clear
2:55 AM 44.8 °F - 41.9 °F 90% 30.05 in 10.0 mi Calm Calm - N/A   Clear
3:15 AM 44.6 °F 43.1 °F 41.4 °F 88% 30.04 in 10.0 mi SW 3.5 mph - N/A   Clear
3:35 AM 43.9 °F - 41.2 °F 90% 30.04 in 10.0 mi Calm Calm - N/A   Clear
3:55 AM 43.7 °F 41.1 °F 41.0 °F 90% 30.04 in 10.0 mi SW 4.6 mph - N/A   Clear
4:15 AM 43.9 °F 41.3 °F 41.0 °F 90% 30.04 in 10.0 mi SW 4.6 mph - N/A   Clear
4:35 AM 44.1 °F 40.8 °F 41.0 °F 89% 30.04 in 10.0 mi SSW 5.8 mph - N/A   Clear
4:55 AM 43.7 °F - 40.6 °F 89% 30.04 in 10.0 mi Calm Calm - N/A   Clear
5:15 AM 44.6 °F - 40.8 °F 87% 30.04 in 10.0 mi Calm Calm - N/A   Clear
5:35 AM 43.3 °F - 39.7 °F 87% 30.04 in 10.0 mi Calm Calm - N/A   Clear
5:55 AM 42.3 °F 40.5 °F 39.9 °F 91% 30.05 in 10.0 mi South 3.5 mph - N/A   Clear
6:15 AM 41.4 °F - 39.2 °F 92% 30.05 in 10.0 mi Calm Calm - N/A   Clear
6:35 AM 42.3 °F 40.5 °F 39.7 °F 91% 30.06 in 10.0 mi SW 3.5 mph - N/A   Clear
6:55 AM 43.9 °F - 40.5 °F 88% 30.06 in 10.0 mi Calm Calm - N/A   Clear
7:15 AM 42.3 °F 40.5 °F 39.0 °F 88% 30.06 in 10.0 mi South 3.5 mph - N/A   Clear
7:35 AM 42.3 °F - 39.9 °F 91% 30.06 in 10.0 mi Calm Calm - N/A   Clear
7:55 AM 43.5 °F 41.9 °F 41.0 °F 91% 30.07 in 10.0 mi SSW 3.5 mph - N/A   Clear
8:15 AM 47.7 °F - 44.1 °F 87% 30.06 in 10.0 mi Calm Calm - N/A   Clear
8:35 AM 50.2 °F - 45.1 °F 83% 30.06 in 10.0 mi South 3.5 mph - N/A   Clear
8:55 AM 52.9 °F - 46.6 °F 79% 30.06 in 10.0 mi South 4.6 mph - N/A   Clear
9:15 AM 55.8 °F - 47.5 °F 74% 30.06 in 10.0 mi SSW 3.5 mph - N/A   Clear
9:35 AM 57.7 °F - 47.7 °F 69% 30.07 in 10.0 mi SSW 6.9 mph - N/A   Clear
9:55 AM 59.9 °F - 48.2 °F 65% 30.07 in 10.0 mi SSW 10.4 mph - N/A   Clear
10:00 AM 60.8 °F - 46.4 °F 59% 30.07 in 10.0 mi SSW 8.1 mph - N/A   Clear
10:15 AM 61.7 °F - 46.6 °F 58% 30.07 in 10.0 mi SSW 11.5 mph - N/A   Clear
10:35 AM 64.0 °F - 46.0 °F 52% 30.06 in 10.0 mi SSW 10.4 mph - N/A   Clear
10:55 AM 65.7 °F - 44.2 °F 46% 30.06 in 10.0 mi SSW 13.8 mph - N/A   Clear
11:15 AM 67.1 °F - 43.5 °F 42% 30.06 in 10.0 mi SSW 12.7 mph 16.1 mph N/A   Clear
11:35 AM 67.3 °F - 43.5 °F 42% 30.06 in 10.0 mi SSW 11.5 mph - N/A   Clear
11:55 AM 68.5 °F - 43.5 °F 40% 30.05 in 10.0 mi SSW 11.5 mph - N/A   Clear
12:15 PM 69.3 °F - 42.8 °F 38% 30.04 in 10.0 mi SSW 12.7 mph 19.6 mph N/A   Clear
12:35 PM 70.3 °F - 43.0 °F 37% 30.04 in 10.0 mi SW 12.7 mph - N/A   Clear
12:55 PM 70.9 °F - 41.9 °F 35% 30.03 in 10.0 mi South 13.8 mph 17.3 mph N/A   Clear
1:15 PM 71.6 °F - 41.4 °F 33% 30.02 in 10.0 mi SSW 12.7 mph - N/A   Clear
1:35 PM 72.3 °F - 42.1 °F 34% 30.00 in 10.0 mi South 13.8 mph - N/A   Clear
1:55 PM 72.1 °F - 41.7 °F 33% 29.99 in 10.0 mi SSW 12.7 mph 18.4 mph N/A   Clear
2:15 PM 72.9 °F - 41.9 °F 33% 29.99 in 10.0 mi South 13.8 mph 23.0 mph N/A   Clear
2:35 PM 72.9 °F - 41.5 °F 32% 29.98 in 10.0 mi SSW 13.8 mph 21.9 mph N/A   Clear
2:55 PM 73.6 °F - 41.2 °F 31% 29.97 in 10.0 mi South 11.5 mph - N/A   Clear
3:15 PM 73.4 °F - 41.4 °F 31% 29.96 in 10.0 mi SSW 11.5 mph 18.4 mph N/A   Clear
3:35 PM 73.4 °F - 41.7 °F 32% 29.96 in 10.0 mi South 16.1 mph - N/A   Clear
3:55 PM 73.6 °F - 41.7 °F 32% 29.95 in 10.0 mi SSE 17.3 mph 23.0 mph N/A   Clear
4:15 PM 73.2 °F - 41.4 °F 32% 29.95 in 10.0 mi South 15.0 mph 20.7 mph N/A   Clear
4:35 PM 73.4 °F - 43.0 °F 34% 29.95 in 10.0 mi South 16.1 mph 19.6 mph N/A   Clear
4:55 PM 72.7 °F - 42.3 °F 33% 29.94 in 10.0 mi South 13.8 mph 20.7 mph N/A   Clear
5:15 PM 72.5 °F - 41.9 °F 33% 29.94 in 10.0 mi South 13.8 mph - N/A   Clear
5:35 PM 71.8 °F - 41.5 °F 34% 29.94 in 10.0 mi South 13.8 mph - N/A   Clear
5:55 PM 70.7 °F - 42.1 °F 35% 29.94 in 10.0 mi South 11.5 mph 18.4 mph N/A   Clear
6:15 PM 69.8 °F - 41.7 °F 36% 29.94 in 10.0 mi South 12.7 mph 16.1 mph N/A   Clear
6:35 PM 67.5 °F - 43.3 °F 42% 29.94 in 10.0 mi South 8.1 mph - N/A   Clear
6:55 PM 65.1 °F - 44.1 °F 46% 29.94 in 10.0 mi South 8.1 mph - N/A   Clear
7:15 PM 63.3 °F - 44.1 °F 49% 29.93 in 10.0 mi SSE 8.1 mph - N/A   Clear
7:35 PM 61.7 °F - 44.6 °F 53% 29.94 in 10.0 mi SSE 8.1 mph - N/A   Clear
7:55 PM 61.2 °F - 44.6 °F 54% 29.94 in 10.0 mi South 8.1 mph - N/A   Clear
8:15 PM 60.4 °F - 44.6 °F 56% 29.94 in 10.0 mi South 9.2 mph - N/A   Clear
8:35 PM 58.3 °F - 45.0 °F 61% 29.94 in 10.0 mi South 6.9 mph - N/A   Clear
8:55 PM 57.6 °F - 45.1 °F 63% 29.94 in 10.0 mi SSE 9.2 mph - N/A   Clear
9:15 PM 57.7 °F - 45.5 °F 64% 29.94 in 10.0 mi South 6.9 mph - N/A   Clear
9:35 PM 58.1 °F - 45.5 °F 63% 29.94 in 10.0 mi SSE 8.1 mph - N/A   Clear
9:55 PM 56.8 °F - 45.5 °F 66% 29.94 in 10.0 mi SSE 6.9 mph - N/A   Clear
10:15 PM 55.6 °F - 45.5 °F 69% 29.94 in 10.0 mi SSE 8.1 mph - N/A   Clear
10:35 PM 53.8 °F - 45.7 °F 74% 29.94 in 10.0 mi SSE 8.1 mph - N/A   Clear
10:55 PM 54.9 °F - 45.5 °F 71% 29.94 in 10.0 mi SSE 8.1 mph - N/A   Clear
11:15 PM 55.0 °F - 45.5 °F 70% 29.94 in 10.0 mi SSE 8.1 mph - N/A   Clear
11:35 PM 54.5 °F - 45.7 °F 72% 29.94 in 10.0 mi SSE 8.1 mph - N/A   Clear
11:55 PM 52.9 °F - 45.5 °F 76% 29.94 in 10.0 mi South 5.8 mph - N/A   Clear